| time (UTC) | temp F | wind direction | speed knots | gust knots | rain 1hr in | rain 24hr in | rain mn in | humidity % | barometer mb |
| 20260510153401 | 55 | 341 | 2.6 | 7.8 | 0.00 | 0.37 | 0.00 | 46 | 1016.1 |
| 20260510153147 | 55 | 350 | 2.6 | 7.8 | 0.00 | 0.37 | 0.00 | 47 | 1016.0 |
| 20260510152402 | 54 | 329 | 2.6 | 6.1 | 0.00 | 0.37 | 0.00 | 47 | 1016.0 |
| 20260510151903 | 54 | 305 | 2.6 | 6.1 | 0.00 | 0.37 | 0.00 | 48 | 1015.9 |
| 20260510151402 | 54 | 298 | 1.7 | 5.2 | 0.00 | 0.37 | 0.00 | 50 | 1015.8 |
| 20260510150901 | 54 | 99 | 1.7 | 5.2 | 0.00 | 0.37 | 0.00 | 47 | 1015.8 |
| 20260510150652 | 54 | 301 | 1.7 | 6.1 | 0.00 | 0.37 | 0.00 | 47 | 1015.7 |
| 20260510145902 | 54 | 23 | 1.7 | 6.1 | 0.00 | 0.37 | 0.00 | 46 | 1015.6 |
| 20260510145402 | 54 | 297 | 2.6 | 6.1 | 0.00 | 0.37 | 0.00 | 46 | 1015.6 |
| 20260510144901 | 53 | 293 | 2.6 | 4.3 | 0.00 | 0.37 | 0.00 | 49 | 1015.5 |
| 20260510144401 | 53 | 276 | 2.6 | 6.1 | 0.00 | 0.37 | 0.00 | 48 | 1015.5 |
| 20260510143901 | 53 | 5 | 1.7 | 6.1 | 0.00 | 0.37 | 0.00 | 51 | 1015.5 |
| 20260510143401 | 54 | 345 | 1.7 | 5.2 | 0.00 | 0.37 | 0.00 | 48 | 1015.3 |
| 20260510142936 | 53 | 309 | 1.7 | 5.2 | 0.00 | 0.37 | 0.00 | 50 | 1015.2 |
| 20260510142925 | 53 | 29 | 1.7 | 5.2 | 0.00 | 0.37 | 0.00 | 50 | 1015.2 |
| 20260510141902 | 53 | 276 | 1.7 | 6.1 | 0.00 | 0.37 | 0.00 | 49 | 1015.2 |
| 20260510141402 | 53 | 204 | 1.7 | 6.1 | 0.00 | 0.37 | 0.00 | 48 | 1015.2 |
| 20260510140901 | 53 | 283 | 1.7 | 5.2 | 0.00 | 0.37 | 0.00 | 48 | 1015.0 |
| 20260510140401 | 53 | 285 | 1.7 | 5.2 | 0.00 | 0.37 | 0.00 | 50 | 1015.0 |
| 20260510135900 | 52 | 339 | 1.7 | 5.2 | 0.00 | 0.37 | 0.00 | 54 | 1014.8 |
| 20260510135401 | 52 | 344 | 1.7 | 5.2 | 0.00 | 0.37 | 0.00 | 52 | 1014.8 |
| 20260510134900 | 51 | 0 | 1.7 | 4.3 | 0.00 | 0.37 | 0.00 | 53 | 1014.8 |
| 20260510134401 | 51 | 307 | 1.7 | 4.3 | 0.00 | 0.37 | 0.00 | 54 | 1014.7 |
| 20260510133902 | 51 | 303 | 1.7 | 4.3 | 0.00 | 0.37 | 0.00 | 54 | 1014.6 |
| 20260510133402 | 51 | 300 | 1.7 | 4.3 | 0.00 | 0.37 | 0.00 | 55 | 1014.5 |
| 20260510132902 | 51 | 166 | 1.7 | 6.1 | 0.00 | 0.37 | 0.00 | 55 | 1014.4 |
| 20260510132401 | 50 | 282 | 1.7 | 6.1 | 0.00 | 0.37 | 0.00 | 52 | 1014.4 |
| 20260510131903 | 50 | 298 | 1.7 | 6.1 | 0.00 | 0.37 | 0.00 | 54 | 1014.3 |
| 20260510131402 | 50 | 310 | 1.7 | 6.1 | 0.00 | 0.37 | 0.00 | 53 | 1014.4 |
| 20260510130901 | 49 | 345 | 1.7 | 5.2 | 0.00 | 0.37 | 0.00 | 60 | 1014.3 |
| 20260510130400 | 49 | 299 | 2.6 | 5.2 | 0.00 | 0.37 | 0.00 | 58 | 1014.3 |
| 20260510125900 | 49 | 281 | 1.7 | 4.3 | 0.00 | 0.37 | 0.00 | 63 | 1014.2 |
| 20260510125647 | 48 | 329 | 1.7 | 4.3 | 0.00 | 0.37 | 0.00 | 62 | 1014.2 |
| 20260510124900 | 48 | 298 | 1.7 | 5.2 | 0.00 | 0.37 | 0.00 | 63 | 1014.1 |
| 20260510124402 | 48 | 294 | 1.7 | 5.2 | 0.00 | 0.37 | 0.00 | 63 | 1014.1 |
| 20260510123858 | 47 | 255 | 1.7 | 5.2 | 0.00 | 0.37 | 0.00 | 64 | 1014.3 |
| 20260510123359 | 47 | 293 | 1.7 | 6.1 | 0.00 | 0.37 | 0.00 | 65 | 1014.5 |
| 20260510122900 | 47 | 298 | 1.7 | 6.1 | 0.00 | 0.37 | 0.00 | 68 | 1014.5 |
| 20260510122400 | 47 | 287 | 1.7 | 5.2 | 0.00 | 0.37 | 0.00 | 69 | 1014.4 |
| 20260510121859 | 46 | 19 | 1.7 | 3.5 | 0.00 | 0.37 | 0.00 | 73 | 1014.5 |
| 20260510121400 | 46 | 289 | 1.7 | 5.2 | 0.00 | 0.37 | 0.00 | 74 | 1014.4 |
| 20260510120857 | 45 | 290 | 1.7 | 5.2 | 0.00 | 0.37 | 0.00 | 76 | 1014.3 |
| 20260510120357 | 45 | 304 | 0.9 | 3.5 | 0.00 | 0.37 | 0.00 | 79 | 1014.2 |
| 20260510115857 | 44 | 319 | 0.9 | 2.6 | 0.00 | 0.37 | 0.00 | 80 | 1014.1 |
| 20260510115358 | 43 | 293 | 0.9 | 2.6 | 0.00 | 0.37 | 0.00 | 83 | 1014.2 |
| 20260510114857 | 43 | 277 | 0.9 | 2.6 | 0.00 | 0.37 | 0.00 | 83 | 1014.2 |
| 20260510114359 | 43 | 338 | 0.0 | 2.6 | 0.00 | 0.37 | 0.00 | 81 | 1014.1 |
| 20260510113859 | 42 | 26 | 0.0 | 1.7 | 0.00 | 0.37 | 0.00 | 83 | 1014.1 |
| 20260510113358 | 41 | 0 | 0.0 | 1.7 | 0.00 | 0.37 | 0.00 | 84 | 1014.1 |
| 20260510113146 | 40 | 287 | 0.0 | 1.7 | 0.00 | 0.37 | 0.00 | 86 | 1014.1 |
| 20260510112358 | 38 | 0 | 0.0 | 1.7 | 0.00 | 0.37 | 0.00 | 91 | 1014.0 |
| 20260510111857 | 37 | 0 | 0.0 | 0.0 | 0.00 | 0.37 | 0.00 | 95 | 1014.0 |
| 20260510111358 | 36 | 0 | 0.0 | 0.0 | 0.00 | 0.37 | 0.00 | 95 | 1014.1 |
| 20260510110859 | 35 | 0 | 0.0 | 1.7 | 0.00 | 0.37 | 0.00 | 96 | 1014.3 |
| 20260510110358 | 34 | 0 | 0.0 | 1.7 | 0.00 | 0.37 | 0.00 | 96 | 1014.2 |
| 20260510105858 | 34 | 0 | 0.0 | 0.9 | 0.00 | 0.37 | 0.00 | 96 | 1014.4 |
| 20260510105358 | 34 | 0 | 0.0 | 1.7 | 0.00 | 0.37 | 0.00 | 96 | 1014.5 |
| 20260510104859 | 34 | 0 | 0.0 | 1.7 | 0.00 | 0.37 | 0.00 | 96 | 1014.5 |
| 20260510104647 | 34 | 0 | 0.0 | 1.7 | 0.00 | 0.37 | 0.00 | 96 | 1014.3 |
| 20260510103855 | 33 | 0 | 0.0 | 0.9 | 0.00 | 0.37 | 0.00 | 96 | 1014.3 |
| 20260510103354 | 33 | 0 | 0.0 | 0.9 | 0.00 | 0.37 | 0.00 | 96 | 1014.3 |
| 20260510102854 | 33 | 192 | 0.0 | 0.9 | 0.00 | 0.37 | 0.00 | 95 | 1014.3 |
| 20260510102355 | 33 | 0 | 0.0 | 0.9 | 0.00 | 0.37 | 0.00 | 95 | 1014.3 |
| 20260510101855 | 33 | 0 | 0.0 | 0.9 | 0.00 | 0.37 | 0.00 | 94 | 1014.3 |
| 20260510101356 | 33 | 0 | 0.0 | 0.0 | 0.00 | 0.37 | 0.00 | 94 | 1014.2 |
| 20260510101142 | 34 | 0 | 0.0 | 0.0 | 0.00 | 0.37 | 0.00 | 94 | 1014.1 |
| 20260510100356 | 34 | 0 | 0.0 | 0.9 | 0.00 | 0.37 | 0.00 | 94 | 1014.0 |
| 20260510095856 | 34 | 0 | 0.0 | 0.9 | 0.00 | 0.37 | 0.00 | 94 | 1013.9 |
| 20260510095356 | 34 | 0 | 0.0 | 0.9 | 0.00 | 0.37 | 0.00 | 93 | 1013.7 |
| 20260510094856 | 34 | 0 | 0.0 | 0.0 | 0.00 | 0.37 | 0.00 | 93 | 1013.7 |
| 20260510094356 | 35 | 0 | 0.0 | 0.9 | 0.00 | 0.37 | 0.00 | 92 | 1013.7 |
| 20260510093857 | 35 | 0 | 0.0 | 0.9 | 0.00 | 0.37 | 0.00 | 92 | 1013.6 |
| 20260510093353 | 35 | 0 | 0.0 | 0.0 | 0.00 | 0.37 | 0.00 | 91 | 1013.5 |
| 20260510092852 | 35 | 0 | 0.0 | 0.0 | 0.00 | 0.37 | 0.00 | 90 | 1013.3 |
| 20260510092357 | 36 | 0 | 0.0 | 0.0 | 0.00 | 0.37 | 0.00 | 90 | 1013.2 |
| 20260510091854 | 36 | 0 | 0.0 | 0.0 | 0.00 | 0.37 | 0.00 | 89 | 1013.2 |
| 20260510091352 | 36 | 0 | 0.0 | 0.9 | 0.00 | 0.37 | 0.00 | 89 | 1013.0 |
| 20260510090852 | 36 | 0 | 0.0 | 0.9 | 0.00 | 0.37 | 0.00 | 89 | 1012.9 |
| 20260510090352 | 36 | 0 | 0.0 | 0.9 | 0.00 | 0.37 | 0.00 | 89 | 1012.7 |
| 20260510085853 | 37 | 0 | 0.0 | 0.9 | 0.00 | 0.37 | 0.00 | 88 | 1012.7 |
| 20260510085354 | 37 | 0 | 0.0 | 0.9 | 0.00 | 0.37 | 0.00 | 88 | 1012.5 |
| 20260510084853 | 37 | 288 | 0.0 | 0.9 | 0.00 | 0.37 | 0.00 | 89 | 1012.4 |
| 20260510084353 | 37 | 0 | 0.0 | 0.9 | 0.00 | 0.37 | 0.00 | 89 | 1012.3 |
| 20260510083854 | 37 | 0 | 0.0 | 0.9 | 0.00 | 0.37 | 0.00 | 89 | 1012.2 |
| 20260510083351 | 37 | 0 | 0.0 | 0.9 | 0.00 | 0.37 | 0.00 | 88 | 1012.2 |
| 20260510082929 | 38 | 0 | 0.0 | 1.7 | 0.00 | 0.37 | 0.00 | 87 | 1011.9 |
| 20260510082918 | 37 | 0 | 0.0 | 1.7 | 0.00 | 0.37 | 0.00 | 87 | 1012.2 |
| 20260510081851 | 38 | 0 | 0.0 | 1.7 | 0.00 | 0.37 | 0.00 | 87 | 1011.7 |
| 20260510081635 | 38 | 0 | 0.0 | 1.7 | 0.00 | 0.37 | 0.00 | 86 | 1011.7 |
| 20260510080852 | 38 | 272 | 0.0 | 1.7 | 0.00 | 0.37 | 0.00 | 86 | 1011.6 |
| 20260510080352 | 38 | 0 | 0.0 | 0.9 | 0.00 | 0.37 | 0.00 | 86 | 1011.6 |
| 20260510075852 | 38 | 0 | 0.0 | 0.0 | 0.00 | 0.37 | 0.00 | 85 | 1011.6 |
| 20260510075637 | 39 | 0 | 0.0 | 0.9 | 0.00 | 0.37 | 0.00 | 85 | 1011.6 |
| 20260510074852 | 39 | 0 | 0.0 | 1.7 | 0.00 | 0.37 | 0.00 | 84 | 1011.5 |
| 20260510074352 | 39 | 0 | 0.0 | 1.7 | 0.00 | 0.37 | 0.00 | 84 | 1011.5 |
| 20260510073849 | 39 | 289 | 0.0 | 1.7 | 0.00 | 0.37 | 0.00 | 84 | 1011.5 |
| 20260510073350 | 39 | 0 | 0.0 | 0.9 | 0.00 | 0.37 | 0.00 | 84 | 1011.4 |
| 20260510072849 | 40 | 0 | 0.0 | 0.9 | 0.00 | 0.37 | 0.00 | 83 | 1011.4 |
| 20260510072635 | 40 | 0 | 0.0 | 0.9 | 0.00 | 0.37 | 0.00 | 82 | 1011.3 |
| 20260510071850 | 40 | 296 | 0.0 | 0.9 | 0.00 | 0.37 | 0.00 | 81 | 1011.3 |
| 20260510071633 | 40 | 0 | 0.0 | 0.9 | 0.00 | 0.37 | 0.00 | 81 | 1011.2 |
| 20260510070850 | 41 | 0 | 0.0 | 0.9 | 0.00 | 0.37 | 0.00 | 80 | 1011.2 |
| 20260510070351 | 41 | 0 | 0.0 | 1.7 | 0.00 | 0.37 | 0.00 | 79 | 1011.1 |
| 20260510065850 | 41 | 0 | 0.0 | 1.7 | 0.00 | 0.37 | 0.00 | 79 | 1011.0 |
| 20260510065347 | 41 | 311 | 0.0 | 1.7 | 0.00 | 0.37 | 0.00 | 79 | 1011.0 |
| 20260510064846 | 42 | 0 | 0.0 | 1.7 | 0.00 | 0.37 | 0.00 | 79 | 1011.0 |
| 20260510064346 | 42 | 22 | 0.0 | 1.7 | 0.00 | 0.37 | 0.00 | 79 | 1011.0 |
| 20260510064129 | 42 | 0 | 0.0 | 1.7 | 0.00 | 0.37 | 0.00 | 79 | 1010.9 |
| 20260510063344 | 42 | 0 | 0.0 | 1.7 | 0.00 | 0.37 | 0.00 | 80 | 1010.8 |
| 20260510062841 | 42 | 5 | 0.9 | 1.7 | 0.00 | 0.37 | 0.00 | 80 | 1010.7 |
| 20260510062626 | 42 | 0 | 0.0 | 1.7 | 0.00 | 0.37 | 0.00 | 80 | 1010.7 |
| 20260510062125 | 42 | 304 | 0.9 | 2.6 | 0.00 | 0.37 | 0.00 | 80 | 1010.8 |
| 20260510061340 | 43 | 33 | 0.9 | 2.6 | 0.00 | 0.37 | 0.00 | 80 | 1010.7 |
| 20260510060840 | 43 | 0 | 0.0 | 1.7 | 0.00 | 0.37 | 0.00 | 79 | 1010.8 |
| 20260510060624 | 43 | 0 | 0.9 | 3.5 | 0.00 | 0.37 | 0.00 | 79 | 1010.7 |
| 20260510055840 | 43 | 265 | 0.9 | 3.5 | 0.00 | 0.37 | 0.00 | 78 | 1010.6 |
| 20260510055622 | 44 | 0 | 0.9 | 2.6 | 0.00 | 0.37 | 0.00 | 78 | 1010.6 |
| 20260510054835 | 44 | 272 | 0.9 | 2.6 | 0.00 | 0.37 | 0.00 | 78 | 1010.6 |
| 20260510054335 | 44 | 274 | 0.9 | 2.6 | 0.00 | 0.37 | 0.00 | 77 | 1010.4 |
| 20260510053836 | 44 | 323 | 0.9 | 2.6 | 0.00 | 0.37 | 0.00 | 77 | 1010.3 |
| 20260510053415 | 44 | 0 | 0.9 | 3.5 | 0.00 | 0.37 | 0.00 | 76 | 1010.4 |
| 20260510053402 | 44 | 284 | 0.9 | 2.6 | 0.00 | 0.37 | 0.00 | 77 | 1010.4 |
| 20260510052336 | 45 | 284 | 0.9 | 4.3 | 0.00 | 0.37 | 0.00 | 76 | 1010.4 |
| 20260510051835 | 45 | 0 | 0.9 | 5.2 | 0.00 | 0.37 | 0.00 | 75 | 1010.2 |
| 20260510051336 | 45 | 278 | 0.9 | 5.2 | 0.00 | 0.37 | 0.00 | 74 | 1010.1 |
| 20260510050837 | 46 | 313 | 0.9 | 3.5 | 0.00 | 0.37 | 0.00 | 74 | 1010.0 |
| 20260510050336 | 46 | 240 | 0.9 | 3.5 | 0.00 | 0.37 | 0.00 | 73 | 1009.8 |
| 20260510045836 | 46 | 0 | 0.9 | 3.5 | 0.00 | 0.37 | 0.00 | 73 | 1009.5 |
| 20260510045337 | 47 | 208 | 0.9 | 3.5 | 0.00 | 0.37 | 0.00 | 73 | 1009.5 |
| 20260510044834 | 47 | 0 | 0.9 | 3.5 | 0.00 | 0.37 | 0.00 | 75 | 1009.5 |
| 20260510044334 | 47 | 0 | 0.9 | 3.5 | 0.00 | 0.37 | 0.00 | 77 | 1009.4 |
| 20260510043834 | 47 | 0 | 0.9 | 2.6 | 0.00 | 0.37 | 0.00 | 78 | 1009.3 |
| 20260510043333 | 47 | 0 | 0.9 | 2.6 | 0.00 | 0.37 | 0.00 | 77 | 1009.1 |
| 20260510043116 | 47 | 263 | 0.9 | 2.6 | 0.00 | 0.37 | 0.00 | 76 | 1009.0 |
| 20260510042332 | 47 | 302 | 0.0 | 1.7 | 0.00 | 0.37 | 0.00 | 76 | 1008.8 |
| 20260510041832 | 47 | 0 | 0.0 | 1.7 | 0.00 | 0.37 | 0.00 | 76 | 1008.8 |
| 20260510041331 | 47 | 0 | 0.0 | 2.6 | 0.00 | 0.37 | 0.00 | 76 | 1008.9 |
| 20260510040832 | 47 | 0 | 0.0 | 2.6 | 0.00 | 0.37 | 0.00 | 76 | 1008.8 |
| 20260510040615 | 47 | 0 | 0.0 | 2.6 | 0.00 | 0.37 | 0.00 | 76 | 1008.6 |
| 20260510035832 | 48 | 0 | 0.0 | 0.0 | 0.00 | 0.37 | 0.37 | 76 | 1008.5 |
| 20260510035332 | 48 | 0 | 0.0 | 1.7 | 0.00 | 0.37 | 0.37 | 75 | 1008.4 |
| 20260510034832 | 48 | 0 | 0.0 | 1.7 | 0.00 | 0.37 | 0.37 | 76 | 1008.4 |
| 20260510034333 | 48 | 0 | 0.0 | 0.0 | 0.00 | 0.37 | 0.37 | 75 | 1008.4 |
| 20260510033832 | 48 | 0 | 0.0 | 0.9 | 0.00 | 0.37 | 0.37 | 75 | 1008.3 |
| 20260510033330 | 49 | 0 | 0.0 | 1.7 | 0.00 | 0.37 | 0.37 | 74 | 1008.3 |
| 20260510032830 | 49 | 0 | 0.0 | 1.7 | 0.00 | 0.37 | 0.37 | 74 | 1008.2 |
| 20260510032618 | 49 | 0 | 0.0 | 1.7 | 0.00 | 0.37 | 0.37 | 74 | 1008.1 |
| 20260510032116 | 49 | 0 | 0.0 | 1.7 | 0.00 | 0.37 | 0.37 | 73 | 1007.8 |
| 20260510031331 | 49 | 0 | 0.0 | 1.7 | 0.00 | 0.37 | 0.37 | 73 | 1007.8 |
| 20260510030830 | 49 | 300 | 0.0 | 1.7 | 0.00 | 0.37 | 0.37 | 73 | 1007.8 |
| 20260510030331 | 49 | 0 | 0.0 | 2.6 | 0.00 | 0.37 | 0.37 | 73 | 1007.7 |
| 20260510025831 | 49 | 0 | 0.9 | 2.6 | 0.00 | 0.37 | 0.37 | 72 | 1007.7 |
| 20260510025331 | 49 | 0 | 0.0 | 2.6 | 0.00 | 0.37 | 0.37 | 71 | 1007.4 |
| 20260510025119 | 49 | 267 | 0.0 | 2.6 | 0.00 | 0.37 | 0.37 | 71 | 1007.5 |
| 20260510024331 | 50 | 0 | 0.9 | 2.6 | 0.00 | 0.37 | 0.37 | 70 | 1007.5 |
| 20260510023831 | 50 | 7 | 0.9 | 2.6 | 0.00 | 0.37 | 0.37 | 70 | 1007.5 |
| 20260510023331 | 50 | 191 | 0.0 | 2.6 | 0.00 | 0.37 | 0.37 | 70 | 1007.3 |
| 20260510022830 | 50 | 288 | 0.9 | 3.5 | 0.00 | 0.37 | 0.37 | 69 | 1007.3 |
| 20260510022617 | 51 | 0 | 0.9 | 3.5 | 0.00 | 0.37 | 0.37 | 69 | 1007.2 |
| 20260510022117 | 51 | 261 | 0.9 | 3.5 | 0.00 | 0.37 | 0.37 | 69 | 1007.3 |
| 20260510021330 | 51 | 271 | 0.9 | 3.5 | 0.00 | 0.37 | 0.37 | 68 | 1007.0 |
| 20260510021119 | 51 | 152 | 0.9 | 2.6 | 0.00 | 0.37 | 0.37 | 67 | 1006.8 |
| 20260510020330 | 52 | 150 | 0.9 | 2.6 | 0.00 | 0.37 | 0.37 | 67 | 1006.9 |
| 20260510015830 | 52 | 281 | 0.9 | 3.5 | 0.00 | 0.37 | 0.37 | 66 | 1006.7 |
| 20260510015330 | 53 | 141 | 1.7 | 3.5 | 0.00 | 0.37 | 0.37 | 67 | 1006.5 |
| 20260510014830 | 53 | 11 | 0.9 | 5.2 | 0.00 | 0.37 | 0.37 | 67 | 1006.3 |
| 20260510014330 | 53 | 278 | 0.9 | 5.2 | 0.00 | 0.37 | 0.37 | 66 | 1005.9 |
| 20260510013830 | 54 | 344 | 0.9 | 4.3 | 0.00 | 0.37 | 0.37 | 66 | 1005.7 |
| 20260510013329 | 54 | 281 | 0.9 | 6.1 | 0.00 | 0.37 | 0.37 | 66 | 1005.7 |
| 20260510012830 | 55 | 303 | 0.9 | 6.1 | 0.00 | 0.37 | 0.37 | 66 | 1005.7 |
| 20260510012330 | 55 | 273 | 0.9 | 4.3 | 0.00 | 0.37 | 0.37 | 66 | 1005.8 |
| 20260510011830 | 56 | 0 | 0.9 | 4.3 | 0.00 | 0.37 | 0.37 | 66 | 1005.8 |
| 20260510011330 | 56 | 196 | 1.7 | 6.1 | 0.00 | 0.37 | 0.37 | 64 | 1005.1 |
| 20260510010830 | 57 | 178 | 1.7 | 6.1 | 0.00 | 0.37 | 0.37 | 64 | 1005.2 |
| 20260510010330 | 58 | 23 | 0.9 | 3.5 | 0.00 | 0.37 | 0.37 | 64 | 1004.7 |
| 20260510005831 | 58 | 244 | 0.9 | 3.5 | 0.00 | 0.37 | 0.37 | 63 | 1004.7 |
| 20260510005330 | 59 | 41 | 0.9 | 2.6 | 0.00 | 0.37 | 0.37 | 61 | 1004.4 |
| 20260510004829 | 59 | 0 | 0.9 | 5.2 | 0.00 | 0.37 | 0.37 | 58 | 1004.2 |
| 20260510004330 | 59 | 296 | 1.7 | 5.2 | 0.00 | 0.37 | 0.37 | 56 | 1004.1 |
| 20260510004116 | 60 | 286 | 1.7 | 4.3 | 0.00 | 0.37 | 0.37 | 56 | 1004.0 |
| 20260510003330 | 60 | 271 | 1.7 | 4.3 | 0.00 | 0.37 | 0.37 | 57 | 1004.1 |
| 20260510002830 | 60 | 52 | 2.6 | 5.2 | 0.00 | 0.37 | 0.37 | 57 | 1004.1 |
| 20260510002331 | 61 | 295 | 2.6 | 6.1 | 0.00 | 0.37 | 0.37 | 56 | 1004.0 |
| 20260510001831 | 61 | 301 | 3.5 | 8.7 | 0.00 | 0.37 | 0.37 | 56 | 1003.8 |
| 20260510001330 | 62 | 298 | 3.5 | 8.7 | 0.00 | 0.37 | 0.37 | 56 | 1003.7 |
| 20260510000831 | 62 | 312 | 2.6 | 5.2 | 0.00 | 0.37 | 0.37 | 57 | 1003.5 |
| 20260510000619 | 62 | 302 | 2.6 | 5.2 | 0.00 | 0.37 | 0.37 | 58 | 1003.3 |
| 20260509235831 | 62 | 296 | 1.7 | 5.2 | 0.00 | 0.37 | 0.37 | 59 | 1003.1 |
| 20260509235326 | 62 | 15 | 1.7 | 5.2 | 0.00 | 0.37 | 0.37 | 60 | 1003.3 |
| 20260509234826 | 62 | 335 | 1.7 | 3.5 | 0.00 | 0.37 | 0.37 | 60 | 1003.1 |
| 20260509234326 | 62 | 302 | 1.7 | 3.5 | 0.00 | 0.37 | 0.37 | 60 | 1003.0 |
| 20260509233826 | 62 | 282 | 1.7 | 3.5 | 0.00 | 0.37 | 0.37 | 59 | 1002.9 |
| 20260509233613 | 62 | 295 | 1.7 | 3.5 | 0.00 | 0.37 | 0.37 | 60 | 1002.8 |
| 20260509233118 | 63 | 282 | 1.7 | 3.5 | 0.00 | 0.37 | 0.37 | 59 | 1002.7 |
| 20260509232324 | 63 | 197 | 1.7 | 5.2 | 0.00 | 0.37 | 0.37 | 58 | 1002.6 |
| 20260509231824 | 64 | 297 | 2.6 | 6.1 | 0.00 | 0.37 | 0.37 | 56 | 1002.4 |
| 20260509231323 | 64 | 280 | 2.6 | 7.0 | 0.00 | 0.37 | 0.37 | 57 | 1002.3 |
| 20260509230824 | 64 | 281 | 3.5 | 7.8 | 0.00 | 0.37 | 0.37 | 56 | 1002.2 |
| 20260509230614 | 64 | 303 | 3.5 | 7.8 | 0.00 | 0.37 | 0.37 | 54 | 1002.2 |
| 20260509225824 | 64 | 285 | 4.3 | 7.8 | 0.00 | 0.37 | 0.37 | 55 | 1002.3 |
| 20260509225323 | 64 | 306 | 4.3 | 7.8 | 0.00 | 0.37 | 0.37 | 54 | 1001.9 |
| 20260509224821 | 64 | 293 | 4.3 | 7.8 | 0.00 | 0.37 | 0.37 | 54 | 1002.0 |
| 20260509224321 | 64 | 298 | 3.5 | 7.8 | 0.00 | 0.37 | 0.37 | 57 | 1001.9 |
| 20260509223821 | 64 | 135 | 2.6 | 7.8 | 0.00 | 0.37 | 0.37 | 59 | 1001.7 |
| 20260509223321 | 63 | 309 | 1.7 | 4.3 | 0.00 | 0.37 | 0.37 | 72 | 1001.8 |
| 20260509222820 | 63 | 0 | 1.7 | 5.2 | 0.00 | 0.37 | 0.37 | 76 | 1001.8 |
| 20260509222320 | 62 | 0 | 1.7 | 6.1 | 0.00 | 0.37 | 0.37 | 75 | 1001.6 |
| 20260509221820 | 63 | 258 | 1.7 | 6.1 | 0.00 | 0.37 | 0.37 | 75 | 1001.6 |
| 20260509221321 | 63 | 217 | 1.7 | 5.2 | 0.00 | 0.37 | 0.37 | 74 | 1001.4 |
| 20260509220820 | 62 | 222 | 1.7 | 5.2 | 0.00 | 0.37 | 0.37 | 75 | 1001.3 |
| 20260509220321 | 62 | 240 | 1.7 | 5.2 | 0.00 | 0.37 | 0.37 | 75 | 1001.3 |
| 20260509215821 | 63 | 216 | 1.7 | 6.1 | 0.00 | 0.37 | 0.37 | 74 | 1001.3 |
| 20260509215321 | 63 | 236 | 1.7 | 6.1 | 0.00 | 0.37 | 0.37 | 75 | 1001.1 |
| 20260509214824 | 63 | 217 | 1.7 | 5.2 | 0.00 | 0.37 | 0.37 | 74 | 1000.8 |
| 20260509214609 | 62 | 288 | 1.7 | 5.2 | 0.00 | 0.37 | 0.37 | 72 | 1000.9 |
| 20260509213824 | 62 | 0 | 0.9 | 5.2 | 0.00 | 0.37 | 0.37 | 73 | 1001.1 |
| 20260509213321 | 62 | 0 | 1.7 | 5.2 | 0.00 | 0.37 | 0.37 | 73 | 1000.9 |
| 20260509212820 | 62 | 223 | 1.7 | 5.2 | 0.00 | 0.37 | 0.37 | 74 | 1001.0 |
| 20260509212322 | 61 | 205 | 1.7 | 5.2 | 0.00 | 0.37 | 0.37 | 75 | 1001.1 |
| 20260509212103 | 61 | 200 | 1.7 | 5.2 | 0.00 | 0.37 | 0.37 | 77 | 1001.0 |
| 20260509211320 | 60 | 158 | 1.7 | 5.2 | 0.00 | 0.37 | 0.37 | 78 | 1001.2 |
| 20260509210820 | 60 | 0 | 1.7 | 5.2 | 0.00 | 0.37 | 0.37 | 80 | 1001.3 |
| 20260509210320 | 60 | 118 | 1.7 | 5.2 | 0.03 | 0.37 | 0.37 | 80 | 1001.5 |
| 20260509205820 | 59 | 217 | 1.7 | 5.2 | 0.04 | 0.37 | 0.37 | 82 | 1001.5 |
| 20260509205321 | 59 | 292 | 0.9 | 4.3 | 0.05 | 0.37 | 0.37 | 84 | 1001.5 |
| 20260509205106 | 58 | 184 | 0.9 | 4.3 | 0.08 | 0.37 | 0.37 | 85 | 1001.5 |
| 20260509204321 | 57 | 336 | 0.9 | 5.2 | 0.27 | 0.37 | 0.37 | 88 | 1001.7 |
| 20260509203818 | 56 | 158 | 1.7 | 7.0 | 0.30 | 0.37 | 0.37 | 89 | 1001.8 |
| 20260509203318 | 55 | 287 | 1.7 | 7.0 | 0.30 | 0.37 | 0.37 | 89 | 1001.8 |
| 20260509203059 | 54 | 232 | 3.5 | 9.6 | 0.35 | 0.37 | 0.37 | 91 | 1001.6 |
| 20260509202317 | 53 | 271 | 3.5 | 9.6 | 0.36 | 0.37 | 0.37 | 89 | 1001.9 |
| 20260509201816 | 53 | 218 | 3.5 | 7.8 | 0.36 | 0.37 | 0.37 | 92 | 1001.9 |
| 20260509201316 | 51 | 219 | 3.5 | 7.8 | 0.36 | 0.37 | 0.37 | 92 | 1002.0 |
| 20260509200816 | 51 | 182 | 1.7 | 7.8 | 0.36 | 0.37 | 0.36 | 90 | 1002.8 |
| 20260509200316 | 51 | 145 | 0.9 | 4.3 | 0.33 | 0.34 | 0.33 | 91 | 1003.3 |
| 20260509195815 | 51 | 87 | 0.9 | 3.5 | 0.32 | 0.33 | 0.33 | 91 | 1002.9 |
| 20260509195634 | 55 | 336 | 4.3 | 8.7 | 0.28 | 0.29 | 0.28 | 87 | 1003.6 |
| 20260509195340 | 52 | 0 | 1.7 | 8.7 | 0.31 | 0.32 | 0.31 | 90 | 1003.1 |
| 20260509194314 | 59 | 309 | 3.5 | 8.7 | 0.09 | 0.10 | 0.08 | 77 | 1003.7 |
| 20260509193814 | 60 | 253 | 2.6 | 6.1 | 0.06 | 0.07 | 0.07 | 79 | 1002.3 |
| 20260509193314 | 62 | 98 | 3.5 | 8.7 | 0.06 | 0.07 | 0.07 | 77 | 1002.0 |
| 20260509192814 | 63 | 328 | 4.3 | 9.6 | 0.01 | 0.02 | 0.02 | 70 | 1001.9 |
| 20260509192314 | 63 | 216 | 4.3 | 12.2 | 0.00 | 0.01 | 0.01 | 66 | 1000.9 |
| 20260509192057 | 63 | 210 | 4.3 | 12.2 | 0.00 | 0.01 | 0.01 | 66 | 1001.0 |
| 20260509191314 | 64 | 178 | 5.2 | 11.3 | 0.00 | 0.01 | 0.01 | 66 | 1001.0 |
| 20260509190814 | 64 | 286 | 5.2 | 11.3 | 0.00 | 0.01 | 0.01 | 65 | 1001.0 |
| 20260509190314 | 64 | 186 | 4.3 | 11.3 | 0.00 | 0.01 | 0.01 | 68 | 1001.0 |
| 20260509185814 | 64 | 230 | 4.3 | 8.7 | 0.00 | 0.01 | 0.01 | 70 | 1001.1 |
| 20260509185314 | 64 | 348 | 4.3 | 8.7 | 0.00 | 0.01 | 0.01 | 71 | 1001.3 |
| 20260509185054 | 64 | 219 | 4.3 | 7.8 | 0.00 | 0.01 | 0.01 | 70 | 1001.3 |
| 20260509184633 | 64 | 226 | 5.2 | 12.2 | 0.00 | 0.01 | 0.01 | 69 | 1001.3 |
| 20260509184626 | 64 | 249 | 4.3 | 9.6 | 0.00 | 0.01 | 0.01 | 69 | 1001.3 |
| 20260509183309 | 65 | 248 | 5.2 | 12.2 | 0.00 | 0.01 | 0.01 | 68 | 1001.4 |
| 20260509182809 | 65 | 184 | 4.3 | 9.6 | 0.00 | 0.01 | 0.01 | 67 | 1001.2 |
| 20260509182309 | 65 | 241 | 4.3 | 10.4 | 0.01 | 0.01 | 0.01 | 67 | 1000.8 |
| 20260509181810 | 65 | 228 | 4.3 | 11.3 | 0.01 | 0.01 | 0.01 | 67 | 1000.6 |
| 20260509181309 | 66 | 169 | 4.3 | 11.3 | 0.01 | 0.01 | 0.01 | 66 | 1000.7 |
| 20260509180808 | 66 | 220 | 4.3 | 11.3 | 0.01 | 0.01 | 0.01 | 65 | 1000.2 |
| 20260509180309 | 66 | 209 | 4.3 | 11.3 | 0.01 | 0.01 | 0.01 | 63 | 1000.7 |
| 20260509175808 | 65 | 152 | 4.3 | 10.4 | 0.01 | 0.01 | 0.01 | 60 | 1000.3 |
| 20260509175552 | 64 | 227 | 4.3 | 10.4 | 0.01 | 0.01 | 0.01 | 62 | 1000.8 |
| 20260509174808 | 64 | 211 | 4.3 | 10.4 | 0.01 | 0.01 | 0.01 | 63 | 1001.0 |
| 20260509174308 | 63 | 247 | 4.3 | 10.4 | 0.01 | 0.01 | 0.01 | 66 | 1001.7 |
| 20260509173809 | 64 | 227 | 2.6 | 10.4 | 0.01 | 0.01 | 0.00 | 65 | 1001.9 |
| 20260509173310 | 63 | 225 | 1.7 | 7.0 | 0.00 | 0.00 | 0.00 | 64 | 1002.1 |
| 20260509172809 | 64 | 238 | 3.5 | 10.4 | 0.00 | 0.00 | 0.00 | 68 | 1002.6 |
| 20260509172552 | 64 | 176 | 5.2 | 10.4 | 0.00 | 0.00 | 0.00 | 64 | 1002.9 |
| 20260509171809 | 65 | 191 | 5.2 | 10.4 | 0.00 | 0.00 | 0.00 | 64 | 1002.5 |
| 20260509171552 | 66 | 226 | 4.3 | 9.6 | 0.00 | 0.00 | 0.00 | 61 | 1002.0 |
| 20260509170808 | 67 | 252 | 4.3 | 9.6 | 0.00 | 0.00 | 0.00 | 61 | 1001.3 |
| 20260509170309 | 67 | 220 | 3.5 | 9.6 | 0.00 | 0.00 | 0.00 | 63 | 1000.8 |
| 20260509170053 | 66 | 246 | 4.3 | 9.6 | 0.00 | 0.00 | 0.00 | 64 | 1000.8 |
| 20260509165309 | 66 | 247 | 4.3 | 12.2 | 0.00 | 0.00 | 0.00 | 64 | 1001.8 |
| 20260509164810 | 67 | 194 | 4.3 | 12.2 | 0.00 | 0.00 | 0.00 | 61 | 1001.0 |
| 20260509164310 | 66 | 182 | 4.3 | 9.6 | 0.00 | 0.00 | 0.00 | 65 | 1001.0 |
| 20260509163808 | 65 | 125 | 4.3 | 8.7 | 0.00 | 0.00 | 0.00 | 66 | 1001.7 |
| 20260509163308 | 65 | 280 | 3.5 | 7.8 | 0.00 | 0.00 | 0.00 | 66 | 1001.6 |
| 20260509162807 | 65 | 256 | 4.3 | 7.8 | 0.00 | 0.00 | 0.00 | 66 | 1002.2 |
| 20260509162308 | 66 | 197 | 4.3 | 10.4 | 0.00 | 0.00 | 0.00 | 65 | 1001.9 |
| 20260509161807 | 65 | 226 | 3.5 | 10.4 | 0.00 | 0.00 | 0.00 | 65 | 1001.3 |
| 20260509161308 | 64 | 227 | 3.5 | 7.8 | 0.00 | 0.00 | 0.00 | 68 | 1001.4 |
| 20260509160807 | 64 | 199 | 3.5 | 7.8 | 0.00 | 0.00 | 0.00 | 69 | 1002.4 |
| 20260509160307 | 65 | 216 | 3.5 | 7.8 | 0.00 | 0.00 | 0.00 | 68 | 1002.7 |
| 20260509155807 | 65 | 229 | 3.5 | 7.8 | 0.00 | 0.00 | 0.00 | 67 | 1002.0 |
| 20260509155307 | 64 | 233 | 3.5 | 7.8 | 0.00 | 0.00 | 0.00 | 70 | 1002.3 |
| 20260509154808 | 64 | 176 | 2.6 | 7.0 | 0.00 | 0.00 | 0.00 | 70 | 1001.9 |
| 20260509154308 | 62 | 133 | 3.5 | 7.8 | 0.00 | 0.00 | 0.00 | 72 | 1002.1 |
| 20260509153807 | 62 | 236 | 3.5 | 7.8 | 0.00 | 0.00 | 0.00 | 73 | 1002.0 |